Список аэропортов
Фактическая погода:

23 апреля, 12:00
Температура: +5°C (-0.1*)
Ветер: сев.-восточный 9 м/с
Давление: *752 мм
неб. облачность
270 м
разорв. обл.
кучево-дождевые 1500 м
слаб. ливневый дождь
Время (МСК)Темп. СВетерВлажностьДавлениеОблачностьОсадки
09:00+9СВ, 9 м/с62%1006 гПаоблачно
10:00+10СВ, 10 м/с62%1005 гПаоблачносл. дождь
11:00+10СВ, 12 м/с62%1003 гПаоблачнодождь
12:00+10СВ, 13 м/с64%1001 гПаоблачнодождь
13:00+11СВ, 14 м/с62%998 гПаоблачнодождь
14:00+11СВ, 12 м/с59%997 гПаоблачносл. дождь
15:00+11СВ, 10 м/с62%997 гПаоблачнодождь
16:00+10С, 7 м/с71%998 гПаоблачнодождь
17:00+10С, 10 м/с72%999 гПаоблачнодождь
18:00+8СЗ, 12 м/с85%1000 гПаоблачнодождь
19:00+6СЗ, 12 м/с87%1002 гПаоблачнодождь
20:00+6СЗ, 10 м/с88%1003 гПаоблачнодождь
21:00+7З, 10 м/с86%1005 гПаоблачнодождь
22:00+7З, 9 м/с83%1006 гПаоблачнодождь
23:00+8З, 9 м/с81%1006 гПаоблачнодождь
24 апреля
00:00+9З, 10 м/с82%1007 гПаоблачнодождь
01:00+9З, 8 м/с83%1007 гПаоблачнодождь
02:00+9З, 8 м/с82%1008 гПаоблачносл. дождь
03:00+10З, 9 м/с80%1008 гПаоблачно
04:00+10З, 8 м/с80%1009 гПаоблачно
05:00+10З, 7 м/с81%1009 гПаоблачно
06:00+10ЮЗ, 6 м/с82%1009 гПаоблачно
07:00+10ЮЗ, 6 м/с83%1009 гПаоблачносл. дождь
08:00+10ЮЗ, 7 м/с83%1009 гПаоблачносл. дождь
09:00+10ЮЗ, 9 м/с85%1010 гПаоблачнодождь
10:00+10Ю, 10 м/с84%1009 гПаоблачнодождь
11:00+10Ю, 12 м/с84%1009 гПаоблачнодождь
12:00+9ЮЗ, 14 м/с78%1008 гПаоблачносл. дождь
13:00+8ЮЗ, 16 м/с80%1008 гПаоблачносл. дождь
14:00+7ЮЗ, 16 м/с84%1008 гПаоблачнодождь
15:00+7З, 17 м/с83%1009 гПаоблачнодождь
16:00+8З, 14 м/с80%1011 гПаоблачнодождь
17:00+8З, 11 м/с77%1012 гПаоблачносл. дождь
18:00+9З, 9 м/с70%1013 гПаоблачно
19:00+9З, 6 м/с72%1014 гПаоблачнодождь
20:00+9З, 7 м/с83%1015 гПаоблачнодождь
21:00+9З, 8 м/с80%1016 гПаоблачнодождь
22:00+9З, 8 м/с76%1017 гПаоблачнодождь
23:00+9З, 8 м/с74%1017 гПаоблачнодождь
25 апреля
00:00+9З, 7 м/с74%1018 гПаоблачносл. дождь
01:00+9З, 6 м/с76%1019 гПаоблачно
02:00+9З, 5 м/с80%1019 гПаоблачно
03:00+8З, 5 м/с86%1020 гПаоблачносл. дождь
04:00+8СЗ, 4 м/с91%1021 гПаоблачносл. дождь
05:00+8СЗ, 3 м/с94%1022 гПаясно
06:00+7СЗ, 3 м/с95%1023 гПамалооблачно
07:00+8СЗ, 3 м/с91%1023 гПаясно
08:00+10СЗ, 4 м/с82%1024 гПаясно
09:00+11СЗ, 4 м/с76%1025 гПаясно